Time,TemperatureF,DewpointF,PressureIn,WindDirection,WindDirectionDegrees,WindSpeedMPH,WindSpeedGustMPH,Humidity,HourlyPrecipIn,Conditions,Clouds,dailyrainin,SoftwareType,DateUTC
2013-09-27 00:01:00,58.5,55.6,30.15,NE,50,0.0,0.0,90,0.00,,OVC065,0.00,VWS V14.01,2013-09-27 04:01:00,
2013-09-27 00:02:00,58.5,55.6,30.15,NE,50,0.0,0.0,90,0.00,,OVC065,0.00,VWS V14.01,2013-09-27 04:02:00,
2013-09-27 00:03:00,58.5,55.6,30.15,NE,50,0.0,0.0,90,0.00,,OVC065,0.00,VWS V14.01,2013-09-27 04:03:00,
2013-09-27 00:08:00,58.6,56.0,30.15,NE,50,0.0,1.0,91,0.00,,OVC065,0.00,VWS V14.01,2013-09-27 04:08:00,
2013-09-27 00:13:00,58.7,56.1,30.15,NE,50,0.0,1.0,91,0.00,,OVC065,0.00,VWS V14.01,2013-09-27 04:13:00,
2013-09-27 00:18:00,58.7,56.1,30.15,NE,50,0.0,1.0,91,0.00,,OVC065,0.00,VWS V14.01,2013-09-27 04:18:00,
2013-09-27 00:23:00,58.8,55.9,30.15,NE,50,0.0,1.0,90,0.00,,OVC065,0.00,VWS V14.01,2013-09-27 04:23:00,
2013-09-27 00:28:00,58.8,55.9,30.16,NE,50,0.0,1.0,90,0.00,,OVC065,0.00,VWS V14.01,2013-09-27 04:28:00,
2013-09-27 00:33:00,58.9,55.7,30.16,NE,50,0.0,0.0,89,0.00,,OVC065,0.00,VWS V14.01,2013-09-27 04:33:00,
2013-09-27 00:38:00,58.9,56.0,30.15,NE,50,0.0,0.0,90,0.00,,OVC065,0.00,VWS V14.01,2013-09-27 04:38:00,
2013-09-27 00:43:00,59.0,55.8,30.16,NE,50,0.0,1.0,89,0.00,,OVC065,0.00,VWS V14.01,2013-09-27 04:43:00,
2013-09-27 00:48:00,59.1,55.9,30.16,NE,50,0.0,2.0,89,0.00,,OVC065,0.00,VWS V14.01,2013-09-27 04:48:00,
2013-09-27 00:53:00,59.1,55.9,30.16,NE,50,0.0,2.0,89,0.00,,OVC065,0.00,VWS V14.01,2013-09-27 04:53:00,
2013-09-27 00:58:00,59.1,55.9,30.16,NE,50,0.0,2.0,89,0.00,,OVC065,0.00,VWS V14.01,2013-09-27 04:58:00,
2013-09-27 01:03:00,59.0,55.8,30.16,NE,50,0.0,1.0,89,0.00,,OVC065,0.00,VWS V14.01,2013-09-27 05:03:00,
2013-09-27 01:08:00,59.0,55.8,30.16,NE,50,0.0,1.0,89,0.00,,OVC065,0.00,VWS V14.01,2013-09-27 05:08:00,
2013-09-27 01:13:00,58.9,55.7,30.16,NE,50,0.0,1.0,89,0.00,,OVC065,0.00,VWS V14.01,2013-09-27 05:13:00,
2013-09-27 01:18:00,58.8,55.6,30.16,NE,50,1.0,2.0,89,0.00,,OVC065,0.00,VWS V14.01,2013-09-27 05:18:00,
2013-09-27 01:23:00,58.8,55.6,30.16,NE,50,0.0,3.0,89,0.00,,OVC065,0.00,VWS V14.01,2013-09-27 05:23:00,
2013-09-27 01:28:00,58.7,55.5,30.17,NE,56,2.0,3.0,89,0.00,,OVC065,0.00,VWS V14.01,2013-09-27 05:28:00,
2013-09-27 01:33:00,58.7,55.5,30.17,NE,56,1.0,3.0,89,0.00,,OVC065,0.00,VWS V14.01,2013-09-27 05:33:00,
2013-09-27 01:38:00,58.7,55.5,30.17,NE,47,1.0,4.0,89,0.00,,OVC065,0.00,VWS V14.01,2013-09-27 05:38:00,
2013-09-27 01:43:00,58.7,55.2,30.17,SSE,156,0.0,4.0,88,0.00,,OVC065,0.00,VWS V14.01,2013-09-27 05:43:00,
2013-09-27 01:48:00,58.7,55.2,30.17,SSE,156,0.0,4.0,88,0.00,,OVC065,0.00,VWS V14.01,2013-09-27 05:48:00,
2013-09-27 01:53:00,58.6,54.8,30.17,SSE,156,3.0,4.0,87,0.00,,OVC065,0.00,VWS V14.01,2013-09-27 05:53:00,
2013-09-27 01:58:00,58.6,54.8,30.17,NE,45,1.0,6.0,87,0.00,,OVC065,0.00,VWS V14.01,2013-09-27 05:58:00,
2013-09-27 02:03:00,58.6,54.8,30.17,SE,127,0.0,3.0,87,0.00,,OVC065,0.00,VWS V14.01,2013-09-27 06:03:00,
2013-09-27 02:08:00,58.6,54.8,30.17,ENE,74,0.0,3.0,87,0.00,,OVC065,0.00,VWS V14.01,2013-09-27 06:08:00,
2013-09-27 02:13:00,58.6,54.8,30.17,NNE,30,2.0,4.0,87,0.00,,OVC065,0.00,VWS V14.01,2013-09-27 06:13:00,
2013-09-27 02:18:00,58.6,54.8,30.17,NNE,30,0.0,4.0,87,0.00,,OVC065,0.00,VWS V14.01,2013-09-27 06:18:00,
2013-09-27 02:23:00,58.5,54.7,30.17,NNE,30,1.0,4.0,87,0.00,,OVC065,0.00,VWS V14.01,2013-09-27 06:23:00,
2013-09-27 02:28:00,58.5,54.7,30.17,NNE,30,0.0,4.0,87,0.00,,OVC065,0.00,VWS V14.01,2013-09-27 06:28:00,
2013-09-27 02:33:00,58.4,54.5,30.17,NNE,30,0.0,1.0,87,0.00,,OVC065,0.00,VWS V14.01,2013-09-27 06:33:00,
2013-09-27 02:38:00,58.4,54.5,30.18,NNE,30,0.0,2.0,87,0.00,,OVC065,0.00,VWS V14.01,2013-09-27 06:38:00,
2013-09-27 02:43:00,58.3,54.5,30.18,NNE,30,0.0,2.0,87,0.00,,OVC065,0.00,VWS V14.01,2013-09-27 06:43:00,
2013-09-27 02:48:00,58.2,54.4,30.18,NE,45,0.0,4.0,87,0.00,,OVC065,0.00,VWS V14.01,2013-09-27 06:48:00,
2013-09-27 02:53:00,58.1,54.3,30.18,NE,45,1.0,4.0,87,0.00,,OVC065,0.00,VWS V14.01,2013-09-27 06:53:00,
2013-09-27 02:58:00,58.1,54.3,30.18,NE,45,3.0,4.0,87,0.00,,OVC065,0.00,VWS V14.01,2013-09-27 06:58:00,
2013-09-27 03:03:00,58.0,54.5,30.18,NE,45,0.0,2.0,88,0.00,,BKN065,0.00,VWS V14.01,2013-09-27 07:03:00,
2013-09-27 03:08:00,57.9,54.4,30.18,NE,45,0.0,4.0,88,0.00,,BKN065,0.00,VWS V14.01,2013-09-27 07:08:00,
2013-09-27 03:13:00,57.9,54.4,30.18,NE,43,0.0,4.0,88,0.00,,BKN065,0.00,VWS V14.01,2013-09-27 07:13:00,
2013-09-27 03:18:00,57.8,54.3,30.18,NE,43,0.0,4.0,88,0.00,,BKN065,0.00,VWS V14.01,2013-09-27 07:18:00,
2013-09-27 03:23:00,57.6,54.1,30.18,NE,43,0.0,4.0,88,0.00,,BKN065,0.00,VWS V14.01,2013-09-27 07:23:00,
2013-09-27 03:28:00,57.5,54.3,30.18,NE,43,0.0,4.0,89,0.00,,BKN065,0.00,VWS V14.01,2013-09-27 07:28:00,
2013-09-27 03:33:00,57.3,54.1,30.18,NE,43,0.0,0.0,89,0.00,,BKN065,0.00,VWS V14.01,2013-09-27 07:33:00,
2013-09-27 03:38:00,57.2,54.0,30.18,NE,43,1.0,2.0,89,0.00,,BKN065,0.00,VWS V14.01,2013-09-27 07:38:00,
2013-09-27 03:43:00,57.0,54.1,30.18,NE,43,2.0,2.0,90,0.00,,BKN065,0.00,VWS V14.01,2013-09-27 07:43:00,
2013-09-27 03:48:00,56.9,54.0,30.18,ESE,121,1.0,2.0,90,0.00,,BKN065,0.08,VWS V14.01,2013-09-27 07:48:00,
2013-09-27 03:49:00,56.9,54.0,30.18,ESE,121,1.0,2.0,90,0.00,,BKN065,0.00,VWS V14.01,2013-09-27 07:49:00,
2013-09-27 03:54:00,56.7,53.8,30.18,ESE,117,0.0,2.0,90,0.00,,BKN065,0.00,VWS V14.01,2013-09-27 07:54:00,
2013-09-27 03:59:00,56.6,53.7,30.18,ESE,114,0.0,2.0,90,0.00,,BKN065,0.00,VWS V14.01,2013-09-27 07:59:00,
2013-09-27 04:04:00,56.4,53.8,30.19,ESE,111,0.0,1.0,91,0.00,,BKN070,0.00,VWS V14.01,2013-09-27 08:04:00,
2013-09-27 04:09:00,56.3,53.4,30.19,ENE,77,0.0,3.0,90,0.00,,BKN070,0.00,VWS V14.01,2013-09-27 08:09:00,
2013-09-27 04:14:00,56.1,53.5,30.19,ENE,77,1.0,3.0,91,0.00,,BKN070,0.00,VWS V14.01,2013-09-27 08:14:00,
2013-09-27 04:19:00,55.9,53.3,30.19,ENE,75,2.0,3.0,91,0.00,,BKN070,0.00,VWS V14.01,2013-09-27 08:19:00,
2013-09-27 04:24:00,55.8,53.2,30.19,ENE,75,2.0,3.0,91,0.00,,BKN070,0.00,VWS V14.01,2013-09-27 08:24:00,
2013-09-27 04:29:00,55.7,53.1,30.19,NE,52,0.0,4.0,91,0.00,,BKN070,0.00,VWS V14.01,2013-09-27 08:29:00,
2013-09-27 04:34:00,55.6,53.0,30.19,NE,54,0.0,2.0,91,0.00,,BKN070,0.00,VWS V14.01,2013-09-27 08:34:00,
2013-09-27 04:39:00,55.5,52.9,30.19,NE,54,0.0,2.0,91,0.00,,BKN070,0.00,VWS V14.01,2013-09-27 08:39:00,
2013-09-27 04:44:00,55.4,52.8,30.20,NE,54,0.0,2.0,91,0.00,,BKN070,0.00,VWS V14.01,2013-09-27 08:44:00,
2013-09-27 04:49:00,55.2,52.6,30.19,NE,54,0.0,2.0,91,0.00,,BKN070,0.00,VWS V14.01,2013-09-27 08:49:00,
2013-09-27 04:54:00,55.1,52.5,30.20,NE,53,0.0,2.0,91,0.00,,BKN070,0.00,VWS V14.01,2013-09-27 08:54:00,
2013-09-27 04:59:00,55.1,52.5,30.20,NE,53,0.0,2.0,91,0.00,,BKN070,0.00,VWS V14.01,2013-09-27 08:59:00,
2013-09-27 05:04:00,55.0,52.4,30.20,NE,53,1.0,2.0,91,0.00,,OVC070,0.00,VWS V14.01,2013-09-27 09:04:00,
2013-09-27 05:09:00,55.0,52.4,30.20,NE,53,0.0,4.0,91,0.00,,OVC070,0.00,VWS V14.01,2013-09-27 09:09:00,
2013-09-27 05:14:00,55.0,52.4,30.20,NE,53,0.0,4.0,91,0.00,,OVC070,0.00,VWS V14.01,2013-09-27 09:14:00,
2013-09-27 05:19:00,54.9,52.3,30.21,NE,53,0.0,4.0,91,0.00,,OVC070,0.00,VWS V14.01,2013-09-27 09:19:00,
2013-09-27 05:24:00,54.9,52.3,30.21,NE,53,0.0,4.0,91,0.00,,OVC070,0.00,VWS V14.01,2013-09-27 09:24:00,
2013-09-27 05:29:00,54.9,52.3,30.21,NE,53,0.0,4.0,91,0.00,,OVC070,0.00,VWS V14.01,2013-09-27 09:29:00,
2013-09-27 05:34:00,54.8,52.2,30.21,NE,53,0.0,3.0,91,0.00,,OVC070,0.00,VWS V14.01,2013-09-27 09:34:00,
2013-09-27 05:39:00,54.8,52.2,30.21,NE,48,2.0,4.0,91,0.00,,OVC070,0.00,VWS V14.01,2013-09-27 09:39:00,
2013-09-27 05:44:00,54.8,52.2,30.21,NE,48,0.0,4.0,91,0.00,,OVC070,0.00,VWS V14.01,2013-09-27 09:44:00,
2013-09-27 05:49:00,54.8,52.2,30.22,NE,48,0.0,4.0,91,0.00,,OVC070,0.00,VWS V14.01,2013-09-27 09:49:00,
2013-09-27 05:54:00,54.7,52.1,30.22,NE,48,0.0,4.0,91,0.00,,OVC070,0.00,VWS V14.01,2013-09-27 09:54:00,
2013-09-27 05:59:00,54.7,52.1,30.22,NE,48,0.0,4.0,91,0.00,,OVC070,0.00,VWS V14.01,2013-09-27 09:59:00,
2013-09-27 06:04:00,54.6,52.0,30.22,NE,50,0.0,2.0,91,0.00,,OVC022,0.00,VWS V14.01,2013-09-27 10:04:00,
2013-09-27 06:09:00,54.5,51.9,30.22,NE,50,2.0,3.0,91,0.00,,OVC022,0.00,VWS V14.01,2013-09-27 10:09:00,
2013-09-27 06:14:00,54.4,51.5,30.22,NE,47,2.0,3.0,90,0.00,,OVC022,0.00,VWS V14.01,2013-09-27 10:14:00,
2013-09-27 06:19:00,54.3,51.4,30.22,NE,47,0.0,3.0,90,0.00,,OVC022,0.00,VWS V14.01,2013-09-27 10:19:00,
2013-09-27 06:24:00,54.2,51.3,30.22,NE,47,0.0,3.0,90,0.00,,OVC022,0.00,VWS V14.01,2013-09-27 10:24:00,
2013-09-27 06:29:00,54.1,51.2,30.23,NE,47,3.0,4.0,90,0.00,,OVC022,0.00,VWS V14.01,2013-09-27 10:29:00,
2013-09-27 06:34:00,53.9,51.0,30.23,NE,47,1.0,5.0,90,0.00,,OVC022,0.00,VWS V14.01,2013-09-27 10:34:00,
2013-09-27 06:39:00,53.8,50.9,30.23,NE,47,0.0,5.0,90,0.00,,OVC022,0.00,VWS V14.01,2013-09-27 10:39:00,
2013-09-27 06:44:00,53.6,50.7,30.23,NE,47,2.0,5.0,90,0.00,,OVC022,0.00,VWS V14.01,2013-09-27 10:44:00,
2013-09-27 06:49:00,53.4,50.8,30.23,NE,47,0.0,5.0,91,0.00,,OVC022,0.00,VWS V14.01,2013-09-27 10:49:00,
2013-09-27 06:54:00,53.2,50.7,30.23,NE,47,0.0,5.0,91,0.00,,OVC022,0.00,VWS V14.01,2013-09-27 10:54:00,
2013-09-27 06:59:00,53.0,50.5,30.24,NE,47,0.0,5.0,91,0.00,,OVC022,0.00,VWS V14.01,2013-09-27 10:59:00,
2013-09-27 07:04:00,52.7,50.2,30.24,NE,47,0.0,1.0,91,0.00,,OVC070,0.00,VWS V14.01,2013-09-27 11:04:00,
2013-09-27 07:09:00,52.5,50.0,30.24,NE,47,0.0,1.0,91,0.00,,OVC070,0.00,VWS V14.01,2013-09-27 11:09:00,
2013-09-27 07:14:00,52.3,50.0,30.24,NE,47,0.0,1.0,92,0.00,,OVC070,0.00,VWS V14.01,2013-09-27 11:14:00,
2013-09-27 07:19:00,52.1,49.8,30.25,NE,47,0.0,1.0,92,0.00,,OVC070,0.00,VWS V14.01,2013-09-27 11:19:00,
2013-09-27 07:24:00,51.9,49.7,30.25,NE,47,0.0,1.0,92,0.00,,OVC070,0.00,VWS V14.01,2013-09-27 11:24:00,
2013-09-27 07:29:00,51.8,49.5,30.25,NE,47,0.0,1.0,92,0.00,,OVC070,0.00,VWS V14.01,2013-09-27 11:29:00,
2013-09-27 07:35:00,51.7,49.8,30.25,NE,47,0.0,2.0,93,0.00,,OVC070,0.00,VWS V14.01,2013-09-27 11:35:00,
2013-09-27 07:40:00,51.7,50.0,30.25,NE,47,0.0,2.0,94,0.00,,OVC070,0.00,VWS V14.01,2013-09-27 11:40:00,
2013-09-27 07:45:00,51.8,50.1,30.25,NE,47,0.0,2.0,94,0.00,,OVC070,0.00,VWS V14.01,2013-09-27 11:45:00,
2013-09-27 07:50:00,51.8,50.1,30.25,NE,47,0.0,2.0,94,0.00,,OVC070,0.00,VWS V14.01,2013-09-27 11:50:00,
2013-09-27 07:55:00,52.0,50.3,30.26,NE,47,0.0,2.0,94,0.00,,OVC070,0.00,VWS V14.01,2013-09-27 11:55:00,
2013-09-27 08:00:00,52.4,51.0,30.26,NE,47,0.0,2.0,95,0.00,,OVC070,0.00,VWS V14.01,2013-09-27 12:00:00,
2013-09-27 08:05:00,53.0,51.3,30.26,NE,47,0.0,1.0,94,0.00,,OVC065,0.00,VWS V14.01,2013-09-27 12:05:00,
2013-09-27 08:10:00,53.5,51.8,30.26,NE,47,0.0,1.0,94,0.00,,OVC065,0.00,VWS V14.01,2013-09-27 12:10:00,
2013-09-27 08:15:00,54.1,51.8,30.26,NE,47,0.0,1.0,92,0.00,,OVC065,0.00,VWS V14.01,2013-09-27 12:15:00,
2013-09-27 08:20:00,54.6,52.3,30.26,NE,47,0.0,1.0,92,0.00,,OVC065,0.00,VWS V14.01,2013-09-27 12:20:00,
2013-09-27 08:25:00,55.2,52.3,30.26,NE,45,0.0,2.0,90,0.00,,OVC065,0.00,VWS V14.01,2013-09-27 12:25:00,
2013-09-27 08:30:00,55.6,52.4,30.26,NE,45,0.0,2.0,89,0.00,,OVC065,0.00,VWS V14.01,2013-09-27 12:30:00,
2013-09-27 08:35:00,56.1,52.9,30.27,NE,45,0.0,1.0,89,0.00,,OVC065,0.00,VWS V14.01,2013-09-27 12:35:00,
2013-09-27 08:40:00,56.5,53.0,30.27,NE,45,0.0,1.0,88,0.00,,OVC065,0.00,VWS V14.01,2013-09-27 12:40:00,
2013-09-27 08:45:00,57.0,53.2,30.27,NE,49,0.0,4.0,87,0.00,,OVC065,0.00,VWS V14.01,2013-09-27 12:45:00,
2013-09-27 08:50:00,57.5,53.3,30.27,NE,52,2.0,4.0,86,0.00,,OVC065,0.00,VWS V14.01,2013-09-27 12:50:00,
2013-09-27 08:55:00,57.9,53.4,30.27,NE,44,1.0,5.0,85,0.00,,OVC065,0.00,VWS V14.01,2013-09-27 12:55:00,
2013-09-27 09:00:00,58.2,53.7,30.27,ENE,77,1.0,5.0,85,0.00,,OVC065,0.00,VWS V14.01,2013-09-27 13:00:00,
2013-09-27 09:05:00,58.6,53.8,30.27,NE,39,2.0,6.0,84,0.00,,OVC043,0.00,VWS V14.01,2013-09-27 13:05:00,
2013-09-27 09:10:00,58.8,53.7,30.27,East,81,4.0,6.0,83,0.00,,OVC043,0.00,VWS V14.01,2013-09-27 13:10:00,
2013-09-27 09:15:00,59.2,53.7,30.27,NE,48,0.0,6.0,82,0.00,,OVC043,0.00,VWS V14.01,2013-09-27 13:15:00,
2013-09-27 09:20:00,59.5,53.7,30.28,East,84,2.0,6.0,81,0.00,,OVC043,0.00,VWS V14.01,2013-09-27 13:20:00,
2013-09-27 09:25:00,59.8,53.6,30.28,ESE,113,4.0,7.0,80,0.00,,OVC043,0.00,VWS V14.01,2013-09-27 13:25:00,
2013-09-27 09:30:00,60.3,54.1,30.28,NNE,29,5.0,5.0,80,0.00,,OVC043,0.00,VWS V14.01,2013-09-27 13:30:00,
2013-09-27 09:35:00,60.6,54.1,30.28,ENE,66,3.0,5.0,79,0.00,,OVC043,0.00,VWS V14.01,2013-09-27 13:35:00,
2013-09-27 09:40:00,60.9,53.7,30.28,NE,49,3.0,6.0,77,0.00,,OVC043,0.00,VWS V14.01,2013-09-27 13:40:00,
2013-09-27 09:45:00,61.2,53.9,30.28,NE,45,1.0,6.0,77,0.00,,OVC043,0.00,VWS V14.01,2013-09-27 13:45:00,
2013-09-27 09:50:00,61.7,54.1,30.28,ESE,107,0.0,6.0,76,0.00,,OVC043,0.00,VWS V14.01,2013-09-27 13:50:00,
2013-09-27 09:55:00,62.3,54.7,30.28,East,86,3.0,6.0,76,0.00,,OVC043,0.08,VWS V14.01,2013-09-27 13:55:00,
2013-09-27 10:00:00,62.8,54.4,30.28,NE,45,4.0,4.0,74,0.00,,OVC043,0.00,VWS V14.01,2013-09-27 14:00:00,
2013-09-27 10:05:00,63.1,54.3,30.28,NNE,31,3.0,5.0,73,0.00,,FEW037,0.00,VWS V14.01,2013-09-27 14:05:00,
2013-09-27 10:10:00,63.1,53.9,30.28,NE,34,4.0,7.0,72,0.00,,FEW037,0.00,VWS V14.01,2013-09-27 14:10:00,
2013-09-27 10:15:00,63.3,54.1,30.28,NE,40,3.0,7.0,72,0.00,,FEW037,0.00,VWS V14.01,2013-09-27 14:15:00,
2013-09-27 10:20:00,63.5,54.3,30.28,NE,45,4.0,7.0,72,0.00,,FEW037,0.00,VWS V14.01,2013-09-27 14:20:00,
2013-09-27 10:25:00,63.7,54.1,30.28,NNE,33,3.0,7.0,71,0.00,,FEW037,0.00,VWS V14.01,2013-09-27 14:25:00,
2013-09-27 10:30:00,64.1,54.9,30.28,ESE,117,0.0,0.0,72,0.00,,FEW037,0.00,VWS V14.01,2013-09-27 14:30:00,
2013-09-27 10:35:00,64.8,55.2,30.28,NE,53,4.0,5.0,71,0.00,,FEW037,0.00,VWS V14.01,2013-09-27 14:35:00,
2013-09-27 10:40:00,65.5,55.5,30.28,NE,51,0.0,5.0,70,0.00,,FEW037,0.00,VWS V14.01,2013-09-27 14:40:00,
2013-09-27 10:45:00,66.2,55.3,30.28,NE,50,4.0,5.0,68,0.00,,FEW037,0.00,VWS V14.01,2013-09-27 14:45:00,
2013-09-27 10:50:00,66.8,56.3,30.28,ESE,118,0.0,5.0,69,0.00,,FEW037,0.00,VWS V14.01,2013-09-27 14:50:00,
2013-09-27 10:55:00,67.7,56.4,30.28,SE,145,0.0,5.0,67,0.00,,FEW037,0.00,VWS V14.01,2013-09-27 14:55:00,
2013-09-27 11:00:00,68.5,56.7,30.28,SE,145,2.0,2.0,66,0.00,,CLR,0.00,VWS V14.01,2013-09-27 15:00:00,
2013-09-27 11:05:00,69.3,56.6,30.28,SE,144,1.0,4.0,64,0.00,,CLR,0.00,VWS V14.01,2013-09-27 15:05:00,
2013-09-27 11:10:00,69.9,56.8,30.28,SE,144,3.0,4.0,63,0.00,,CLR,0.00,VWS V14.01,2013-09-27 15:10:00,
2013-09-27 11:15:00,70.4,56.3,30.28,SE,144,0.0,4.0,61,0.00,,CLR,0.00,VWS V14.01,2013-09-27 15:15:00,
2013-09-27 11:20:00,71.2,57.1,30.28,SE,144,1.0,4.0,61,0.00,,CLR,0.00,VWS V14.01,2013-09-27 15:20:00,
2013-09-27 11:25:00,71.6,57.0,30.28,ENE,66,0.0,4.0,60,0.00,,CLR,0.00,VWS V14.01,2013-09-27 15:25:00,
2013-09-27 11:30:00,72.0,56.0,30.28,NE,47,0.0,2.0,57,0.00,,CLR,0.00,VWS V14.01,2013-09-27 15:30:00,
2013-09-27 11:35:00,71.7,55.7,30.27,NNE,25,2.0,7.0,57,0.00,,CLR,0.00,VWS V14.01,2013-09-27 15:35:00,
2013-09-27 11:40:00,71.5,56.4,30.27,NNE,25,0.0,7.0,59,0.00,,CLR,0.00,VWS V14.01,2013-09-27 15:40:00,
2013-09-27 11:45:00,71.3,56.2,30.27,NNE,13,0.0,7.0,59,0.00,,CLR,0.00,VWS V14.01,2013-09-27 15:45:00,
2013-09-27 11:50:00,72.0,56.4,30.27,SSW,209,2.0,7.0,58,0.00,,CLR,0.00,VWS V14.01,2013-09-27 15:50:00,
2013-09-27 11:55:00,72.9,56.8,30.27,South,189,3.0,7.0,57,0.00,,CLR,0.00,VWS V14.01,2013-09-27 15:55:00,
2013-09-27 12:00:00,73.6,57.4,30.27,SE,136,2.0,4.0,57,0.00,,CLR,0.00,VWS V14.01,2013-09-27 16:00:00,
2013-09-27 12:05:00,74.2,57.5,30.27,SSE,168,3.0,4.0,56,0.00,,CLR,0.00,VWS V14.01,2013-09-27 16:05:00,
2013-09-27 12:10:00,74.9,58.2,30.27,SSE,168,0.0,4.0,56,0.00,,CLR,0.00,VWS V14.01,2013-09-27 16:10:00,
2013-09-27 12:15:00,75.6,57.8,30.27,South,184,4.0,6.0,54,0.00,,CLR,0.00,VWS V14.01,2013-09-27 16:15:00,
2013-09-27 12:20:00,76.1,58.3,30.27,SE,137,4.0,6.0,54,0.00,,CLR,0.00,VWS V14.01,2013-09-27 16:20:00,
2013-09-27 12:25:00,76.6,57.7,30.26,South,172,5.0,6.0,52,0.00,,CLR,0.00,VWS V14.01,2013-09-27 16:25:00,
2013-09-27 12:30:00,76.8,58.4,30.26,SSE,167,3.0,3.0,53,0.00,,CLR,0.00,VWS V14.01,2013-09-27 16:30:00,
2013-09-27 12:35:00,77.0,58.6,30.26,South,177,0.0,6.0,53,0.00,,CLR,0.00,VWS V14.01,2013-09-27 16:35:00,
2013-09-27 12:40:00,77.2,58.2,30.26,ESE,102,0.0,6.0,52,0.00,,CLR,0.00,VWS V14.01,2013-09-27 16:40:00,
2013-09-27 12:45:00,77.4,58.4,30.26,South,184,0.0,6.0,52,0.00,,CLR,0.00,VWS V14.01,2013-09-27 16:45:00,
2013-09-27 12:50:00,78.0,59.0,30.26,South,177,4.0,7.0,52,0.00,,CLR,0.00,VWS V14.01,2013-09-27 16:50:00,
2013-09-27 12:55:00,78.5,59.4,30.26,SSE,164,0.0,7.0,52,0.00,,CLR,0.00,VWS V14.01,2013-09-27 16:55:00,
2013-09-27 13:00:00,79.2,59.5,30.26,SE,138,7.0,7.0,51,0.00,,CLR,0.00,VWS V14.01,2013-09-27 17:00:00,
2013-09-27 13:05:00,79.5,58.1,30.25,ESE,122,11.0,11.0,48,0.00,,CLR,0.00,VWS V14.01,2013-09-27 17:05:00,
2013-09-27 13:11:00,79.6,58.8,30.25,SSE,158,0.0,11.0,49,0.00,,CLR,0.00,VWS V14.01,2013-09-27 17:11:00,
2013-09-27 13:16:00,80.0,59.1,30.25,SSE,158,0.0,11.0,49,0.00,,CLR,0.00,VWS V14.01,2013-09-27 17:16:00,
2013-09-27 13:21:00,80.6,59.7,30.25,East,99,3.0,11.0,49,0.00,,CLR,0.00,VWS V14.01,2013-09-27 17:21:00,
2013-09-27 13:26:00,80.5,58.4,30.25,NE,47,2.0,11.0,47,0.00,,CLR,0.00,VWS V14.01,2013-09-27 17:26:00,
2013-09-27 13:31:00,79.0,58.2,30.25,ENE,73,1.0,1.0,49,0.00,,CLR,0.00,VWS V14.01,2013-09-27 17:31:00,
2013-09-27 13:36:00,78.6,58.4,30.25,SE,138,1.0,6.0,50,0.00,,CLR,0.00,VWS V14.01,2013-09-27 17:36:00,
2013-09-27 13:41:00,78.8,58.6,30.25,ESE,119,2.0,6.0,50,0.00,,CLR,0.00,VWS V14.01,2013-09-27 17:41:00,
2013-09-27 13:46:00,79.0,57.7,30.25,ENE,74,3.0,8.0,48,0.00,,CLR,0.00,VWS V14.01,2013-09-27 17:46:00,
2013-09-27 13:51:00,78.8,58.0,30.24,ESE,116,0.0,8.0,49,0.00,,CLR,0.00,VWS V14.01,2013-09-27 17:51:00,
2013-09-27 13:56:00,79.3,57.9,30.24,SSE,165,1.0,8.0,48,0.00,,CLR,0.00,VWS V14.01,2013-09-27 17:56:00,
2013-09-27 14:01:00,79.6,58.8,30.24,South,182,0.0,6.0,49,0.00,,FEW055,0.00,VWS V14.01,2013-09-27 18:01:00,
2013-09-27 14:06:00,79.8,59.0,30.24,South,181,2.0,6.0,49,0.00,,FEW055,0.00,VWS V14.01,2013-09-27 18:06:00,
2013-09-27 14:11:00,80.0,58.0,30.24,ESE,120,3.0,9.0,47,0.00,,FEW055,0.00,VWS V14.01,2013-09-27 18:11:00,
2013-09-27 14:16:00,80.1,58.1,30.24,NE,45,0.0,9.0,47,0.00,,FEW055,0.00,VWS V14.01,2013-09-27 18:16:00,
2013-09-27 14:21:00,79.7,58.3,30.24,SSW,195,0.0,9.0,48,0.00,,FEW055,0.00,VWS V14.01,2013-09-27 18:21:00,
2013-09-27 14:26:00,79.8,58.4,30.23,SSE,152,4.0,9.0,48,0.00,,FEW055,0.00,VWS V14.01,2013-09-27 18:26:00,
2013-09-27 14:31:00,80.3,58.2,30.23,SE,126,2.0,6.0,47,0.00,,FEW055,0.00,VWS V14.01,2013-09-27 18:31:00,
2013-09-27 14:36:00,80.2,57.0,30.23,NE,45,0.0,7.0,45,0.00,,FEW055,0.00,VWS V14.01,2013-09-27 18:36:00,
2013-09-27 14:41:00,79.6,57.6,30.23,South,180,0.0,8.0,47,0.00,,FEW055,0.00,VWS V14.01,2013-09-27 18:41:00,
2013-09-27 14:46:00,79.9,57.3,30.23,ESE,122,0.0,8.0,46,0.00,,FEW055,0.00,VWS V14.01,2013-09-27 18:46:00,
2013-09-27 14:51:00,80.5,57.8,30.23,South,171,0.0,8.0,46,0.00,,FEW055,0.00,VWS V14.01,2013-09-27 18:51:00,
2013-09-27 14:56:00,81.0,58.3,30.23,SSE,153,0.0,8.0,46,0.00,,FEW055,0.00,VWS V14.01,2013-09-27 18:56:00,
2013-09-27 15:01:00,81.4,59.3,30.23,East,97,0.0,1.0,47,0.00,,SCT055,0.00,VWS V14.01,2013-09-27 19:01:00,
2013-09-27 15:06:00,81.1,57.8,30.23,NE,43,4.0,9.0,45,0.00,,SCT055,0.00,VWS V14.01,2013-09-27 19:06:00,
2013-09-27 15:11:00,79.1,57.2,30.23,ENE,57,3.0,9.0,47,0.00,,SCT055,0.00,VWS V14.01,2013-09-27 19:11:00,
2013-09-27 15:16:00,77.5,55.7,30.23,North,7,3.0,9.0,47,0.00,,SCT055,0.00,VWS V14.01,2013-09-27 19:16:00,
2013-09-27 15:21:00,76.7,56.7,30.23,NNW,337,0.0,9.0,50,0.00,,SCT055,0.00,VWS V14.01,2013-09-27 19:21:00,
2013-09-27 15:26:00,77.3,57.2,30.23,ESE,119,4.0,9.0,50,0.00,,SCT055,0.08,VWS V14.01,2013-09-27 19:26:00,
2013-09-27 15:31:00,78.1,57.4,30.23,SSE,152,0.0,1.0,49,0.00,,SCT055,0.00,VWS V14.01,2013-09-27 19:31:00,
2013-09-27 15:36:00,78.7,57.4,30.22,ESE,118,0.0,6.0,48,0.00,,SCT055,0.00,VWS V14.01,2013-09-27 19:36:00,
2013-09-27 15:41:00,79.3,57.9,30.22,SE,128,0.0,6.0,48,0.00,,SCT055,0.00,VWS V14.01,2013-09-27 19:41:00,
2013-09-27 15:46:00,80.1,58.1,30.22,SE,137,0.0,6.0,47,0.00,,SCT055,0.00,VWS V14.01,2013-09-27 19:46:00,
2013-09-27 15:51:00,80.7,58.0,30.22,ESE,123,0.0,6.0,46,0.00,,SCT055,0.00,VWS V14.01,2013-09-27 19:51:00,
2013-09-27 15:56:00,81.4,58.0,30.22,ESE,118,3.0,6.0,45,0.00,,SCT055,0.00,VWS V14.01,2013-09-27 19:56:00,
2013-09-27 16:01:00,81.7,56.4,30.22,East,93,0.0,7.0,42,0.00,,BKN060,0.00,VWS V14.01,2013-09-27 20:01:00,
2013-09-27 16:06:00,81.6,57.6,30.22,SSE,153,1.0,7.0,44,0.00,,BKN060,0.00,VWS V14.01,2013-09-27 20:06:00,
2013-09-27 16:11:00,81.8,57.8,30.22,SSE,164,0.0,7.0,44,0.00,,BKN060,0.00,VWS V14.01,2013-09-27 20:11:00,
2013-09-27 16:16:00,81.5,57.5,30.22,ESE,111,1.0,7.0,44,0.00,,BKN060,0.00,VWS V14.01,2013-09-27 20:16:00,
2013-09-27 16:21:00,81.5,57.5,30.22,SE,133,0.0,7.0,44,0.00,,BKN060,0.00,VWS V14.01,2013-09-27 20:21:00,
2013-09-27 16:26:00,81.7,57.7,30.22,SE,133,0.0,7.0,44,0.00,,BKN060,0.00,VWS V14.01,2013-09-27 20:26:00,
2013-09-27 16:31:00,81.5,57.5,30.22,NE,37,0.0,1.0,44,0.00,,BKN060,0.00,VWS V14.01,2013-09-27 20:31:00,
2013-09-27 16:36:00,81.0,57.1,30.22,NNE,24,5.0,7.0,44,0.00,,BKN060,0.00,VWS V14.01,2013-09-27 20:36:00,
2013-09-27 16:41:00,79.7,57.1,30.22,NE,38,1.0,7.0,46,0.00,,BKN060,0.00,VWS V14.01,2013-09-27 20:41:00,
2013-09-27 16:46:00,79.6,56.4,30.22,NE,37,0.0,7.0,45,0.00,,BKN060,0.00,VWS V14.01,2013-09-27 20:46:00,
2013-09-27 16:52:00,79.6,56.4,30.22,NNE,33,5.0,7.0,45,0.00,,BKN060,0.00,VWS V14.01,2013-09-27 20:52:00,
2013-09-27 16:57:00,78.4,55.9,30.22,NNE,27,5.0,7.0,46,0.00,,BKN060,0.00,VWS V14.01,2013-09-27 20:57:00,
2013-09-27 17:02:00,77.3,55.5,30.22,NE,34,4.0,5.0,47,0.00,,FEW060,0.00,VWS V14.01,2013-09-27 21:02:00,
2013-09-27 17:07:00,76.7,55.0,30.22,NE,45,0.0,5.0,47,0.00,,FEW060,0.00,VWS V14.01,2013-09-27 21:07:00,
2013-09-27 17:12:00,76.4,55.3,30.22,NNE,30,0.0,5.0,48,0.00,,FEW060,0.00,VWS V14.01,2013-09-27 21:12:00,
2013-09-27 17:17:00,76.2,55.1,30.22,NE,45,0.0,5.0,48,0.00,,FEW060,0.00,VWS V14.01,2013-09-27 21:17:00,
2013-09-27 17:22:00,76.6,55.5,30.22,ENE,66,0.0,5.0,48,0.00,,FEW060,0.00,VWS V14.01,2013-09-27 21:22:00,
2013-09-27 17:27:00,77.5,55.7,30.22,ESE,109,0.0,5.0,47,0.00,,FEW060,0.00,VWS V14.01,2013-09-27 21:27:00,
2013-09-27 17:32:00,77.7,55.9,30.22,ESE,116,3.0,5.0,47,0.00,,FEW060,0.00,VWS V14.01,2013-09-27 21:32:00,
2013-09-27 17:37:00,77.7,55.9,30.22,ESE,106,0.0,5.0,47,0.00,,FEW060,0.00,VWS V14.01,2013-09-27 21:37:00,
2013-09-27 17:42:00,77.9,56.1,30.22,East,101,0.0,5.0,47,0.00,,FEW060,0.00,VWS V14.01,2013-09-27 21:42:00,
2013-09-27 17:47:00,78.3,55.8,30.22,East,81,1.0,5.0,46,0.00,,FEW060,0.00,VWS V14.01,2013-09-27 21:47:00,
2013-09-27 17:52:00,78.3,55.8,30.22,ESE,102,3.0,5.0,46,0.00,,FEW060,0.00,VWS V14.01,2013-09-27 21:52:00,
2013-09-27 17:57:00,78.0,55.6,30.22,ESE,109,0.0,6.0,46,0.00,,FEW060,0.00,VWS V14.01,2013-09-27 21:57:00,
2013-09-27 18:02:00,78.0,56.2,30.22,ESE,104,0.0,1.0,47,0.00,,CLR,0.00,VWS V14.01,2013-09-27 22:02:00,
2013-09-27 18:07:00,77.8,55.4,30.23,ESE,113,0.0,1.0,46,0.00,,CLR,0.00,VWS V14.01,2013-09-27 22:07:00,
2013-09-27 18:12:00,77.2,56.6,30.23,ESE,113,0.0,1.0,49,0.00,,CLR,0.00,VWS V14.01,2013-09-27 22:12:00,
2013-09-27 18:17:00,76.7,56.1,30.23,ESE,113,0.0,1.0,49,0.00,,CLR,0.00,VWS V14.01,2013-09-27 22:17:00,
2013-09-27 18:22:00,75.6,56.2,30.23,ESE,111,0.0,3.0,51,0.00,,CLR,0.00,VWS V14.01,2013-09-27 22:22:00,
2013-09-27 18:27:00,74.7,57.0,30.23,ESE,111,0.0,3.0,54,0.00,,CLR,0.00,VWS V14.01,2013-09-27 22:27:00,
2013-09-27 18:32:00,73.7,57.0,30.23,ESE,111,0.0,0.0,56,0.00,,CLR,0.00,VWS V14.01,2013-09-27 22:32:00,
2013-09-27 18:37:00,72.7,57.1,30.23,ESE,111,0.0,0.0,58,0.00,,CLR,0.00,VWS V14.01,2013-09-27 22:37:00,
2013-09-27 18:42:00,71.6,57.5,30.23,ESE,111,0.0,0.0,61,0.00,,CLR,0.00,VWS V14.01,2013-09-27 22:42:00,
2013-09-27 18:47:00,70.4,56.8,30.23,ESE,110,0.0,0.0,62,0.00,,CLR,0.00,VWS V14.01,2013-09-27 22:47:00,
2013-09-27 18:52:00,69.4,56.7,30.24,ESE,110,0.0,0.0,64,0.00,,CLR,0.00,VWS V14.01,2013-09-27 22:52:00,
2013-09-27 18:57:00,68.5,56.3,30.24,ESE,110,0.0,0.0,65,0.00,,CLR,0.00,VWS V14.01,2013-09-27 22:57:00,
2013-09-27 19:02:00,67.6,56.3,30.24,ESE,110,0.0,0.0,67,0.00,,CLR,0.00,VWS V14.01,2013-09-27 23:02:00,
2013-09-27 19:07:00,66.8,55.5,30.24,ESE,110,0.0,0.0,67,0.00,,CLR,0.00,VWS V14.01,2013-09-27 23:07:00,
2013-09-27 19:12:00,66.0,55.5,30.24,ESE,110,0.0,0.0,69,0.00,,CLR,0.00,VWS V14.01,2013-09-27 23:12:00,
2013-09-27 19:17:00,65.3,55.3,30.24,ESE,110,0.0,0.0,70,0.00,,CLR,0.00,VWS V14.01,2013-09-27 23:17:00,
2013-09-27 19:22:00,64.6,55.0,30.24,ESE,109,0.0,0.0,71,0.00,,CLR,0.00,VWS V14.01,2013-09-27 23:22:00,
2013-09-27 19:27:00,64.0,54.8,30.24,ESE,109,0.0,0.0,72,0.00,,CLR,0.00,VWS V14.01,2013-09-27 23:27:00,
2013-09-27 19:32:00,63.4,54.6,30.24,ESE,109,0.0,0.0,73,0.00,,CLR,0.00,VWS V14.01,2013-09-27 23:32:00,
2013-09-27 19:37:00,62.8,54.0,30.24,ESE,108,0.0,0.0,73,0.00,,CLR,0.00,VWS V14.01,2013-09-27 23:37:00,
2013-09-27 19:42:00,62.4,54.4,30.24,ESE,108,0.0,0.0,75,0.00,,CLR,0.00,VWS V14.01,2013-09-27 23:42:00,
2013-09-27 19:47:00,61.9,53.9,30.25,ESE,106,0.0,0.0,75,0.00,,CLR,0.00,VWS V14.01,2013-09-27 23:47:00,
2013-09-27 19:52:00,61.4,53.4,30.25,ESE,103,0.0,0.0,75,0.00,,CLR,0.00,VWS V14.01,2013-09-27 23:52:00,
2013-09-27 19:57:00,61.0,53.4,30.25,ESE,105,0.0,0.0,76,0.00,,CLR,0.00,VWS V14.01,2013-09-27 23:57:00,
2013-09-27 20:02:00,60.6,53.4,30.25,ESE,104,0.0,0.0,77,0.00,,CLR,0.00,VWS V14.01,2013-09-28 00:02:00,
2013-09-27 20:07:00,60.2,53.0,30.25,ESE,105,0.0,0.0,77,0.00,,CLR,0.00,VWS V14.01,2013-09-28 00:07:00,
2013-09-27 20:12:00,59.8,52.9,30.25,ESE,104,0.0,0.0,78,0.00,,CLR,0.00,VWS V14.01,2013-09-28 00:12:00,
2013-09-27 20:17:00,59.4,52.9,30.25,ESE,105,0.0,0.0,79,0.00,,CLR,0.00,VWS V14.01,2013-09-28 00:17:00,
2013-09-27 20:22:00,59.1,52.9,30.25,ESE,104,0.0,0.0,80,0.00,,CLR,0.08,VWS V14.01,2013-09-28 00:22:00,
2013-09-27 20:27:00,58.7,52.6,30.25,ESE,103,0.0,0.0,80,0.00,,CLR,0.00,VWS V14.01,2013-09-28 00:27:00,
2013-09-27 20:32:00,58.4,52.3,30.25,ESE,103,0.0,0.0,80,0.00,,CLR,0.00,VWS V14.01,2013-09-28 00:32:00,
2013-09-27 20:37:00,58.0,51.9,30.26,East,95,0.0,0.0,80,0.00,,CLR,0.00,VWS V14.01,2013-09-28 00:37:00,
2013-09-27 20:42:00,57.6,51.5,30.26,East,95,0.0,0.0,80,0.00,,CLR,0.00,VWS V14.01,2013-09-28 00:42:00,
2013-09-27 20:47:00,57.3,51.2,30.26,East,94,0.0,0.0,80,0.00,,CLR,0.00,VWS V14.01,2013-09-28 00:47:00,
2013-09-27 20:52:00,57.0,51.6,30.26,East,94,0.0,0.0,82,0.00,,CLR,0.00,VWS V14.01,2013-09-28 00:52:00,
2013-09-27 20:57:00,56.8,51.7,30.26,East,93,0.0,0.0,83,0.00,,CLR,0.00,VWS V14.01,2013-09-28 00:57:00,
2013-09-27 21:02:00,56.5,51.4,30.26,ESE,111,0.0,0.0,83,0.00,,CLR,0.00,VWS V14.01,2013-09-28 01:02:00,
2013-09-27 21:07:00,56.2,51.4,30.26,ESE,111,0.0,0.0,84,0.00,,CLR,0.00,VWS V14.01,2013-09-28 01:07:00,
2013-09-27 21:12:00,55.9,51.1,30.26,ESE,111,0.0,0.0,84,0.00,,CLR,0.00,VWS V14.01,2013-09-28 01:12:00,
2013-09-27 21:17:00,55.6,50.8,30.27,ESE,111,0.0,0.0,84,0.00,,CLR,0.00,VWS V14.01,2013-09-28 01:17:00,
2013-09-27 21:22:00,55.4,50.7,30.27,ESE,111,0.0,0.0,84,0.00,,CLR,0.00,VWS V14.01,2013-09-28 01:22:00,
2013-09-27 21:27:00,55.1,50.7,30.27,ESE,111,0.0,0.0,85,0.00,,CLR,0.00,VWS V14.01,2013-09-28 01:27:00,
2013-09-27 21:32:00,55.0,50.9,30.27,ESE,111,0.0,0.0,86,0.00,,CLR,0.00,VWS V14.01,2013-09-28 01:32:00,
2013-09-27 21:37:00,54.7,50.6,30.27,ESE,111,0.0,0.0,86,0.00,,CLR,0.00,VWS V14.01,2013-09-28 01:37:00,
2013-09-27 21:42:00,54.5,50.7,30.27,ESE,111,0.0,0.0,87,0.00,,CLR,0.00,VWS V14.01,2013-09-28 01:42:00,
2013-09-27 21:47:00,54.4,50.9,30.28,ESE,111,0.0,0.0,88,0.00,,CLR,0.00,VWS V14.01,2013-09-28 01:47:00,
2013-09-27 21:52:00,54.2,50.7,30.28,ESE,111,0.0,1.0,88,0.00,,CLR,0.00,VWS V14.01,2013-09-28 01:52:00,
2013-09-27 21:57:00,54.0,50.8,30.28,ESE,111,0.0,1.0,89,0.00,,CLR,0.00,VWS V14.01,2013-09-28 01:57:00,
2013-09-27 22:02:00,53.9,50.7,30.28,ESE,111,0.0,0.0,89,0.00,,CLR,0.00,VWS V14.01,2013-09-28 02:02:00,
2013-09-27 22:07:00,53.6,50.4,30.28,ESE,111,0.0,0.0,89,0.00,,CLR,0.00,VWS V14.01,2013-09-28 02:07:00,
2013-09-27 22:12:00,53.4,50.2,30.28,ESE,111,0.0,0.0,89,0.00,,CLR,0.00,VWS V14.01,2013-09-28 02:12:00,
2013-09-27 22:17:00,53.2,50.0,30.28,ESE,111,0.0,0.0,89,0.00,,CLR,0.00,VWS V14.01,2013-09-28 02:17:00,
2013-09-27 22:22:00,52.9,49.8,30.29,ESE,111,0.0,0.0,89,0.00,,CLR,0.00,VWS V14.01,2013-09-28 02:22:00,
2013-09-27 22:28:00,52.8,50.0,30.29,ESE,111,0.0,0.0,90,0.00,,CLR,0.00,VWS V14.01,2013-09-28 02:28:00,
2013-09-27 22:33:00,52.7,49.8,30.29,ESE,111,0.0,0.0,90,0.00,,CLR,0.00,VWS V14.01,2013-09-28 02:33:00,
2013-09-27 22:38:00,52.6,50.0,30.29,ESE,111,0.0,0.0,91,0.00,,CLR,0.00,VWS V14.01,2013-09-28 02:38:00,
2013-09-27 22:43:00,52.5,50.2,30.29,ESE,111,0.0,0.0,92,0.00,,CLR,0.00,VWS V14.01,2013-09-28 02:43:00,
2013-09-27 22:48:00,52.4,50.2,30.29,ESE,111,0.0,0.0,92,0.00,,CLR,0.00,VWS V14.01,2013-09-28 02:48:00,
2013-09-27 22:53:00,52.2,50.0,30.30,ESE,111,0.0,0.0,92,0.00,,CLR,0.00,VWS V14.01,2013-09-28 02:53:00,
2013-09-27 22:58:00,52.1,50.1,30.29,ESE,111,0.0,0.0,93,0.00,,CLR,0.00,VWS V14.01,2013-09-28 02:58:00,
2013-09-27 23:03:00,52.1,50.1,30.30,ESE,111,0.0,0.0,93,0.00,,CLR,0.00,VWS V14.01,2013-09-28 03:03:00,
2013-09-27 23:08:00,51.9,49.9,30.30,ESE,111,0.0,1.0,93,0.00,,CLR,0.00,VWS V14.01,2013-09-28 03:08:00,
2013-09-27 23:13:00,51.8,49.8,30.30,ESE,111,0.0,1.0,93,0.00,,CLR,0.00,VWS V14.01,2013-09-28 03:13:00,
2013-09-27 23:18:00,51.7,49.8,30.30,ESE,111,0.0,1.0,93,0.00,,CLR,0.00,VWS V14.01,2013-09-28 03:18:00,
2013-09-27 23:23:00,51.6,49.9,30.30,ESE,111,0.0,1.0,94,0.00,,CLR,0.00,VWS V14.01,2013-09-28 03:23:00,
2013-09-27 23:28:00,51.5,49.5,30.30,ESE,111,0.0,1.0,93,0.00,,CLR,0.00,VWS V14.01,2013-09-28 03:28:00,
2013-09-27 23:33:00,51.3,49.6,30.30,ESE,111,0.0,0.0,94,0.00,,BKN050,0.00,VWS V14.01,2013-09-28 03:33:00,
2013-09-27 23:38:00,51.2,49.5,30.30,ESE,111,0.0,0.0,94,0.00,,BKN050,0.00,VWS V14.01,2013-09-28 03:38:00,
2013-09-27 23:43:00,51.1,49.4,30.30,ESE,111,0.0,0.0,94,0.00,,BKN050,0.00,VWS V14.01,2013-09-28 03:43:00,
2013-09-27 23:48:00,51.1,49.4,30.31,ESE,111,0.0,1.0,94,0.00,,BKN050,0.08,VWS V14.01,2013-09-28 03:48:00,
2013-09-27 23:53:00,51.1,49.7,30.31,ESE,111,0.0,1.0,95,0.00,,BKN050,0.00,VWS V14.01,2013-09-28 03:53:00,
2013-09-27 23:58:00,50.9,49.5,30.31,ESE,111,0.0,1.0,95,0.00,,BKN050,0.00,VWS V14.01,2013-09-28 03:58:00,